{"data":{"norad_id":47776,"epoch":"2026-05-25T03:30:51.374016Z","epoch_age_seconds":65863,"freshness":"FRESH","line1":"1 47776U 21017BG  26145.14642794  .00067519  00000+0  10181-2 0  9997","line2":"2 47776  53.1545 198.0397 0006877 349.1713  10.9149 15.54153273289727","mean_motion":15.54153273,"eccentricity":0.0006877,"inclination_deg":53.1545,"raan_deg":198.0397,"arg_perigee_deg":349.1713,"mean_anomaly_deg":10.9149,"bstar":0.0010181,"rev_number":28972,"period_min":92.654953987926,"perigee_km":399.95057906323,"apogee_km":409.27957627085,"semimajor_km":6782.752077667,"source":"CELESTRAK","updated_at":"2026-05-25T13:38:16.595558Z"}}